Theta_e
297 297 297 297 298 298 298 298 299 299 299 299 299 300 301 303 305 307 309 311 312 313 314 315 315 316 316 317 317 317 318 318 318 319 320 321 321 322 322 323 323 323 323 323 323 323 323 323 324 324 325 325 325 325 325 325 326 326 326 326 327 327 328 329 329 330 330 331 331 331 332 332 333 334 334 333 333 333 333 333 332 332 332 332 331 330
296 296 296 297 297 297 298 298 298 299 300 300 300 300 299 300 301 302 305 307 309 310 311 312 314 315 315 316 316 316 317 317 317 318 318 318 319 320 320 321 321 322 322 323 323 324 324 323 324 324 324 324 324 324 324 324 324 325 325 325 325 326 326 327 327 327 328 328 329 330 330 330 331 332 332 333 333 333 333 333 332 332 331 331 331 330
296 296 296 296 297 297 297 297 298 298 300 300 300 300 300 299 299 299 300 302 304 306 308 309 311 312 313 314 314 315 315 316 316 316 316 317 317 318 318 319 320 321 321 322 323 323 324 324 324 324 324 323 324 324 324 324 324 324 324 324 324 324 325 325 325 326 326 326 327 328 328 329 329 329 330 331 332 333 334 333 332 331 330 329 329 329
296 296 296 296 296 297 297 297 298 298 299 300 300 300 299 299 299 299 299 300 301 303 305 306 307 309 310 311 312 313 313 314 314 314 315 315 315 316 316 317 318 319 320 321 321 322 323 323 323 323 323 323 323 323 323 323 323 323 323 323 323 323 323 323 324 324 325 325 326 326 327 328 328 328 328 329 330 332 333 333 332 331 329 329 329 329
296 296 296 296 296 297 297 297 297 297 298 299 299 299 299 299 299 299 299 300 301 302 303 305 305 306 307 308 309 310 311 312 312 313 313 313 313 314 314 315 315 316 317 318 319 320 321 321 322 322 322 322 322 322 322 322 322 323 323 323 323 323 323 323 323 323 323 323 324 325 326 326 327 327 328 328 329 330 332 331 331 330 330 329 329 329
296 296 296 296 296 297 297 297 297 297 297 298 299 299 299 299 299 299 299 300 301 302 303 304 304 305 306 306 307 307 308 309 310 310 311 312 312 312 313 313 313 314 315 316 317 318 319 319 320 320 321 321 321 321 322 322 322 322 322 322 322 322 322 322 322 322 322 322 322 322 323 324 325 326 327 327 328 329 330 329 329 329 329 329 330 329
295 295 296 296 296 296 297 297 297 297 297 298 298 299 299 299 299 299 300 301 301 302 303 303 304 304 304 305 305 306 306 306 307 308 309 310 310 311 312 312 312 313 313 314 315 315 316 317 318 319 319 320 320 320 321 321 321 321 321 321 322 322 322 322 322 322 322 322 321 321 321 321 322 323 325 326 327 328 328 327 327 328 329 329 329 329
294 294 295 295 296 296 296 296 297 297 297 298 298 299 299 299 300 300 300 301 302 302 302 302 302 303 303 303 304 304 305 305 305 306 306 307 308 309 310 311 311 312 312 312 313 313 314 315 316 317 318 318 319 319 320 320 320 321 321 321 321 322 322 322 323 322 322 322 322 321 321 320 320 321 323 325 326 327 327 327 327 328 329 329 328 327
293 293 294 294 295 295 296 296 296 296 297 297 298 299 300 300 300 300 301 301 302 302 302 302 302 301 301 302 302 303 303 304 304 304 305 305 306 306 307 308 309 310 310 311 311 312 312 313 313 315 316 317 317 318 319 319 319 320 320 320 321 321 321 322 322 322 323 322 322 322 321 321 320 321 321 323 325 326 327 327 327 328 329 328 327 326
291 292 292 293 293 294 295 295 296 296 297 297 298 299 300 300 301 301 301 301 301 301 301 301 301 301 301 301 301 302 302 303 303 303 304 304 305 305 305 306 306 307 308 309 310 310 311 311 312 313 314 315 316 316 317 317 318 318 319 319 320 320 321 321 322 322 322 322 322 322 322 322 321 321 321 322 324 325 326 327 328 328 328 328 326 326
290 290 290 291 292 292 293 294 295 295 296 297 298 299 300 300 301 301 301 301 301 300 300 300 301 301 301 301 301 301 301 302 302 303 303 304 304 304 304 305 305 306 306 307 308 309 310 310 311 312 312 313 314 315 315 316 316 316 317 317 318 319 319 320 320 321 321 321 321 322 322 322 322 322 322 323 323 324 325 326 327 327 327 327 326 325
289 289 289 290 290 291 292 292 293 294 295 296 297 298 298 299 300 300 300 300 300 300 300 300 300 300 301 301 301 301 301 302 302 303 303 304 304 304 304 304 305 305 305 306 307 308 309 310 311 311 312 312 313 313 314 314 314 315 315 316 316 317 318 318 319 319 320 320 320 321 321 322 322 322 322 323 323 324 324 325 326 326 326 326 325 325
288 288 288 289 289 290 290 291 292 293 294 295 296 296 297 298 298 299 299 300 300 299 300 300 300 300 300 300 300 301 301 302 302 303 303 304 304 304 304 304 304 304 305 305 306 306 307 308 310 310 311 312 312 312 313 313 313 313 314 314 314 315 316 316 317 318 318 319 319 319 320 321 321 321 322 322 323 323 324 324 325 325 326 325 325 325
288 288 288 288 289 289 289 290 291 292 292 293 294 295 296 297 297 298 299 299 299 299 300 300 300 300 300 300 300 301 301 302 303 303 303 303 303 303 303 303 304 304 304 304 305 305 306 307 308 309 310 310 311 312 312 312 312 313 313 313 313 314 314 315 315 316 317 317 318 318 319 319 320 321 321 321 322 322 323 324 324 325 325 325 325 326
288 288 288 288 288 288 289 289 290 291 291 292 293 294 295 296 297 297 298 298 299 299 300 300 300 300 299 299 300 300 302 302 303 303 303 303 302 302 302 302 303 303 303 304 304 304 305 305 306 306 307 308 309 310 311 311 312 312 312 313 313 313 313 313 314 314 315 315 316 317 317 318 319 320 320 320 321 322 322 323 323 324 324 324 325 325
288 288 288 288 288 288 288 289 289 290 291 291 292 293 294 295 295 296 297 298 299 299 300 300 300 299 299 298 299 300 301 302 302 302 302 302 301 301 301 302 302 302 302 303 303 304 304 304 304 305 305 306 307 308 309 310 310 311 311 311 312 312 312 313 313 313 314 314 315 315 316 317 317 318 319 320 320 320 321 321 322 323 323 323 324 324
288 288 288 288 288 288 288 289 289 289 290 290 291 291 292 293 294 295 296 297 298 299 300 300 300 299 298 297 298 298 299 300 301 301 301 301 300 300 301 301 301 302 302 302 302 303 303 303 304 304 304 305 306 306 307 308 309 309 310 310 310 311 311 312 312 312 313 313 313 314 314 315 316 317 318 318 319 319 320 320 321 321 322 322 322 323
288 288 288 288 288 288 288 288 289 289 289 289 290 290 291 292 293 294 295 296 298 299 299 300 299 299 298 298 297 297 298 299 300 300 300 300 300 300 300 301 301 301 302 302 302 302 302 303 303 303 304 304 304 305 305 306 307 308 308 309 309 309 310 310 311 311 312 312 313 313 313 314 315 315 316 317 318 318 319 319 320 320 321 321 322 322
288 288 288 288 288 288 288 288 289 289 289 289 289 290 290 291 292 293 294 295 296 297 298 298 298 298 298 298 298 298 298 299 299 300 300 300 300 300 300 300 301 301 301 301 301 302 302 302 302 303 303 303 304 304 304 305 306 306 307 307 308 308 309 309 310 310 311 311 312 312 313 313 314 314 315 316 317 317 318 319 319 320 320 320 321 321
289 288 288 288 288 288 288 288 289 289 289 289 289 290 290 291 291 292 293 293 294 295 296 297 298 298 298 298 298 299 299 299 300 300 300 300 300 300 300 300 300 300 301 301 301 301 301 302 302 302 303 303 303 304 304 304 304 305 306 306 307 307 308 308 309 309 310 310 311 311 312 312 313 313 314 315 316 316 317 318 318 319 319 320 320 321
289 289 289 289 289 288 288 288 288 289 289 289 289 290 290 291 291 291 292 292 293 294 295 296 296 297 298 299 299 299 300 300 300 300 300 299 299 299 299 299 300 300 300 300 300 301 301 301 302 302 302 302 303 303 303 303 304 304 304 305 305 306 307 308 308 308 309 309 310 310 311 311 312 313 313 314 315 316 316 317 317 318 318 319 319 320
290 290 290 289 289 289 289 289 289 289 289 289 290 290 291 291 291 291 292 292 293 294 294 295 296 297 297 298 298 299 299 300 300 300 299 299 298 298 298 299 299 299 299 300 300 300 300 301 301 301 301 302 302 302 302 303 303 303 303 304 304 305 305 306 307 307 308 308 308 309 309 310 311 311 312 313 314 315 315 316 317 317 318 318 318 319
289 289 290 290 290 289 289 289 289 289 290 290 290 291 291 291 291 292 292 292 293 293 294 295 295 295 295 296 296 296 297 297 298 299 299 298 298 298 297 298 298 298 299 299 299 299 299 300 301 301 301 301 301 302 302 302 302 302 303 303 303 304 304 305 306 306 307 307 307 308 308 309 309 310 311 312 313 314 315 316 316 317 317 317 318 318
288 288 289 289 289 289 290 290 290 290 290 290 291 291 291 291 292 292 292 292 292 293 293 293 293 293 293 294 294 294 295 295 296 297 298 298 297 297 297 297 298 298 298 298 298 298 299 300 300 300 301 301 301 301 301 301 302 302 302 302 302 303 303 304 305 305 306 306 307 307 308 308 309 309 310 311 312 313 314 315 316 317 317 317 317 317
288 288 289 289 289 289 289 290 290 290 290 290 291 291 291 291 291 291 291 291 291 292 292 292 292 292 292 292 293 293 293 294 295 296 297 297 297 297 297 297 297 298 298 298 298 298 299 299 300 300 300 300 300 300 300 301 301 301 302 302 302 302 303 303 304 305 305 306 306 307 307 308 308 309 310 310 311 312 313 314 316 317 318 318 317 317
289 289 289 289 290 290 290 290 290 290 290 290 291 291 291 291 291 291 291 291 291 291 291 291 291 291 291 292 292 292 292 293 294 295 297 297 297 297 297 297 298 298 298 298 298 298 299 299 299 299 299 299 300 300 300 300 300 301 301 301 302 302 302 303 304 304 305 306 306 307 307 308 308 309 309 310 311 312 313 314 315 316 317 317 317 317
289 290 290 290 290 291 291 291 291 291 291 291 291 291 291 291 291 291 291 291 291 291 291 291 291 291 291 291 291 291 292 292 293 295 296 297 297 298 298 298 298 298 298 298 298 298 298 299 299 299 299 299 299 299 299 300 300 300 301 301 301 302 302 303 303 304 305 305 306 307 307 308 308 309 309 310 311 311 312 314 315 316 316 317 317 317
289 289 289 290 290 290 291 291 291 291 291 292 292 292 292 292 292 292 292 291 291 291 291 291 291 291 291 291 291 291 292 292 293 294 295 297 297 298 298 298 298 298 298 298 298 298 298 298 298 298 299 299 299 299 299 300 300 300 300 300 301 301 302 302 303 304 305 305 306 306 307 307 308 308 309 310 310 311 312 313 314 315 316 316 317 317
288 288 288 289 289 290 290 290 291 291 291 291 292 292 292 292 292 292 292 292 292 292 291 291 291 291 291 291 291 291 292 292 292 293 294 296 297 297 297 298 298 298 298 298 298 298 298 298 298 298 299 299 299 300 300 300 300 300 300 300 300 301 301 302 303 304 304 305 306 306 307 307 307 308 309 309 310 311 312 312 313 314 315 315 315 315
287 288 288 288 288 289 289 289 289 290 290 291 291 291 291 292 292 292 292 292 292 292 292 292 292 291 291 291 291 291 292 292 292 293 294 295 296 297 297 298 298 298 298 298 298 298 298 298 298 299 299 299 300 300 300 300 300 300 300 300 301 301 301 302 302 303 304 305 305 306 306 307 307 308 308 309 310 311 311 312 312 313 314 314 314 313
287 287 287 288 288 288 288 288 289 289 289 289 290 290 290 291 291 291 292 292 292 292 292 292 292 292 292 292 292 292 291 291 292 293 294 295 296 297 298 298 298 298 298 298 297 297 298 297 298 299 299 299 299 299 299 299 299 300 300 300 300 301 301 301 302 303 303 304 305 305 306 306 307 307 308 309 309 310 311 312 312 312 313 313 312 312
287 287 287 287 287 287 288 288 288 288 288 288 289 289 289 289 290 290 291 291 292 292 292 292 292 292 292 292 292 292 292 291 292 292 293 295 296 297 298 298 298 298 298 298 298 297 298 297 297 298 298 298 298 298 298 298 298 298 299 299 300 300 300 301 301 302 303 303 304 305 305 306 306 307 308 309 309 310 310 311 311 312 312 312 311 311
288 288 288 288 288 287 287 287 288 288 288 288 288 288 288 289 289 289 290 290 291 292 292 292 293 293 293 293 293 293 292 292 292 292 293 294 295 296 297 298 298 298 298 298 298 298 298 297 297 297 297 297 297 298 298 298 298 298 298 298 299 299 300 300 301 301 302 303 303 304 305 305 306 307 308 308 309 310 310 310 310 311 311 311 310 310
288 288 288 288 288 288 288 287 288 288 288 288 288 288 288 288 289 289 289 289 290 291 291 292 292 293 293 293 293 293 293 293 293 293 293 294 294 295 296 297 297 298 298 298 298 298 298 298 297 297 297 297 297 297 297 297 297 297 298 298 298 299 299 300 300 301 301 302 303 304 304 305 305 306 307 308 308 309 309 309 309 309 309 309 309 309
288 288 288 288 288 288 287 287 287 287 288 288 288 288 288 288 288 288 289 289 289 290 290 291 292 292 293 293 294 294 294 294 294 294 294 294 294 295 296 297 297 297 298 298 298 298 298 297 297 297 297 297 297 297 297 297 297 297 298 298 298 298 299 299 300 300 301 302 302 303 304 304 305 305 306 307 307 308 308 308 308 308 307 308 308 308
288 288 288 288 288 287 287 287 287 287 287 287 288 288 288 288 288 288 288 289 289 289 289 290 291 291 292 293 293 294 294 294 294 294 294 294 294 295 295 296 297 297 298 298 298 298 298 297 297 297 297 297 297 297 297 297 297 297 298 298 298 298 298 298 299 299 300 301 302 302 303 303 304 305 305 306 306 306 307 307 307 306 306 306 306 307
288 288 288 288 288 288 288 288 287 287 287 287 287 288 288 288 288 288 288 288 289 289 289 289 290 290 291 291 292 293 293 293 293 294 293 293 294 294 295 295 296 296 297 298 298 298 298 297 297 297 297 297 297 297 297 297 297 297 297 298 298 298 298 298 298 299 299 300 301 301 302 303 303 304 304 305 305 306 306 306 306 306 306 305 306 306
288 288 288 288 288 288 288 288 288 288 288 288 288 288 288 288 288 288 288 288 288 289 289 289 289 289 290 290 291 291 292 292 292 293 293 293 293 293 294 294 295 295 296 297 297 298 298 297 297 297 297 297 297 297 297 297 297 297 297 297 298 298 297 297 298 298 299 299 300 301 301 302 302 303 303 304 304 305 305 305 306 306 306 306 306 306
288 288 288 288 288 288 288 288 288 288 288 288 288 288 288 288 288 288 288 288 288 289 289 289 289 289 290 290 290 290 291 291 292 292 292 292 292 292 293 293 294 294 294 295 296 297 297 297 297 297 297 297 297 297 297 297 297 297 297 297 298 297 297 297 297 298 298 299 299 300 301 301 302 302 303 303 303 304 304 304 305 305 306 306 306 306
288 288 287 287 287 287 287 287 288 288 288 288 289 289 289 288 288 288 288 288 288 288 289 289 289 289 289 290 290 290 291 291 291 292 292 292 292 292 293 293 293 294 294 294 295 296 297 297 297 298 297 297 297 297 297 297 297 297 297 297 297 297 297 297 297 297 297 298 298 299 300 300 301 301 302 302 303 303 303 304 304 304 305 305 305 306
288 287 287 287 287 287 287 287 287 287 288 288 289 289 289 289 289 288 288 288 288 288 288 289 289 289 289 289 290 290 290 291 291 291 292 292 292 293 293 293 293 293 293 294 294 295 296 296 297 297 298 297 297 297 297 297 297 297 297 297 297 297 297 297 297 297 297 297 297 298 299 300 300 300 301 302 302 303 303 303 303 304 304 304 304 304
288 288 287 287 287 287 287 287 287 287 287 288 289 290 290 290 289 289 289 289 289 289 289 289 289 289 289 289 289 290 290 290 291 291 291 292 292 293 293 293 293 293 293 293 294 294 295 295 296 297 297 297 297 297 297 297 298 298 297 297 297 297 297 297 297 297 297 297 297 297 298 299 299 300 300 301 301 302 302 303 303 303 303 303 303 303
288 288 288 287 287 287 287 287 287 287 288 288 289 289 290 290 290 290 290 290 290 290 290 290 290 290 290 290 290 290 291 291 292 292 292 292 292 293 293 293 293 293 293 293 294 294 294 295 295 296 297 297 297 297 297 297 297 298 298 297 297 297 296 296 296 296 297 297 297 297 297 298 298 299 299 300 300 301 301 302 302 302 303 303 303 303
288 288 288 288 288 287 287 287 287 287 288 288 288 288 289 289 290 290 290 290 291 291 291 291 291 291 291 291 291 292 292 292 293 293 293 293 293 293 293 293 293 293 293 293 294 294 294 294 295 295 296 297 297 297 297 297 297 297 297 297 297 296 296 296 296 296 297 296 296 296 297 297 298 298 298 299 299 300 300 301 301 302 302 302 302 302
288 288 288 288 288 288 288 288 288 288 288 287 287 287 287 288 288 289 290 290 291 291 291 291 290 290 291 291 291 291 292 292 293 293 293 293 294 294 294 294 293 293 293 293 293 293 294 294 294 295 296 297 297 297 297 297 297 297 297 297 297 297 297 296 296 296 296 296 296 296 297 297 297 297 297 298 298 299 299 300 301 301 301 302 302 302
288 288 288 288 288 288 288 288 288 287 287 287 287 287 287 287 287 288 289 290 290 290 290 290 290 290 290 290 290 290 290 291 291 292 292 293 293 293 294 294 294 293 293 293 293 293 293 294 294 295 296 296 296 297 297 297 297 297 297 297 297 296 296 296 296 296 296 296 296 296 296 296 296 296 296 296 297 297 298 299 299 300 301 301 301 302
287 288 287 287 287 287 287 287 287 287 287 287 287 287 287 287 287 287 288 288 288 289 289 288 288 288 288 288 289 289 289 289 289 290 290 291 291 292 293 293 294 294 293 293 293 293 293 293 293 294 295 296 296 296 297 297 297 297 297 297 296 296 295 295 295 296 296 296 296 296 296 296 295 295 295 295 296 297 297 298 298 299 300 300 301 301
287 287 287 287 287 287 287 287 287 287 287 287 287 287 287 286 287 287 287 287 287 287 287 287 287 287 287 288 288 288 288 288 288 288 289 289 290 291 292 293 293 294 293 293 293 293 293 293 293 294 294 295 295 296 296 297 297 297 297 297 296 295 295 295 295 296 296 296 295 295 295 295 295 295 295 295 295 296 296 297 297 298 299 299 300 301
286 286 287 287 287 287 287 287 287 287 287 287 287 287 287 287 287 287 287 287 287 287 287 287 287 287 287 287 287 287 287 288 288 288 288 288 289 290 291 292 293 293 293 293 293 293 293 293 293 293 294 294 295 295 296 296 297 297 297 297 296 296 295 295 295 295 295 295 295 295 295 295 295 295 295 295 295 295 295 296 296 297 297 298 299 300
286 286 286 286 287 287 287 287 287 287 287 287 287 287 287 287 287 287 286 286 286 286 286 286 286 286 286 287 287 287 287 287 287 287 288 288 288 289 290 291 292 293 293 293 293 293 293 293 293 293 293 294 294 295 295 296 296 296 296 296 296 296 295 295 295 295 295 295 294 294 294 295 295 295 295 294 294 294 295 295 295 296 296 297 298 298
286 286 286 286 286 286 287 287 287 287 287 287 287 287 287 287 287 287 287 286 286 286 286 286 286 286 286 286 287 287 287 287 287 287 287 288 288 289 289 291 292 292 292 292 293 293 293 293 293 293 293 293 294 294 295 295 295 296 296 296 296 296 295 295 295 294 294 294 294 294 294 294 294 294 294 294 294 294 294 294 294 295 295 296 297 297
Wind_Speed
18 20 22 22 23 23 23 24 25 25 27 28 28 27 25 24 22 21 19 19 19 18 18 18 18 18 18 18 18 18 17 16 15 14 14 15 16 17 19 20 21 21 22 23 24 24 24 23 23 24 24 24 25 26 27 29 30 31 32 32 32 32 31 32 32 33 34 36 37 38 38 38 38 38 39 38 38 38 37 37 38 38 40 41 43 45
19 20 21 21 22 22 22 23 24 24 24 25 26 26 26 25 24 22 20 19 18 18 18 18 18 17 17 17 17 17 18 18 19 19 18 18 17 18 18 19 20 21 22 24 25 26 26 26 25 25 25 25 25 25 26 26 27 28 29 30 31 31 32 32 32 32 32 34 36 38 39 39 39 39 39 40 40 40 39 39 39 39 41 42 43 44
19 19 20 21 20 20 20 22 23 23 23 23 24 25 25 26 25 25 23 21 19 18 17 17 17 17 17 17 16 16 16 17 18 19 20 20 21 20 20 20 20 21 22 24 26 27 28 28 28 27 27 27 27 27 27 27 27 27 27 28 29 30 31 32 33 33 33 33 35 37 39 39 40 40 40 40 40 41 41 40 40 40 41 42 43 44
16 17 19 20 20 19 19 20 22 22 22 22 22 23 24 24 25 25 24 22 20 18 17 16 16 16 16 16 16 16 16 16 16 17 18 19 20 21 22 22 22 22 23 24 26 27 28 29 29 29 29 29 29 29 29 29 29 29 29 29 29 30 31 32 34 34 35 35 35 36 38 39 40 40 40 40 40 40 41 41 41 41 41 43 44 44
14 15 16 17 17 17 18 20 21 22 22 22 21 22 23 23 24 24 24 22 21 19 17 15 15 15 15 16 16 16 16 16 16 16 16 17 17 19 21 22 23 24 24 24 25 26 27 28 29 29 30 30 30 31 31 31 31 31 31 31 31 31 32 33 34 35 36 36 37 37 38 39 40 41 41 40 39 40 41 42 42 42 42 44 45 45
14 14 14 15 15 15 17 18 20 21 22 22 22 22 22 22 23 24 23 22 20 19 17 16 16 15 15 15 15 16 16 16 16 16 16 16 16 17 18 19 21 23 24 25 25 26 27 27 28 28 29 29 30 31 32 32 32 32 32 33 33 34 34 35 36 36 37 38 39 40 40 41 41 42 42 41 40 40 42 42 42 43 44 45 46 46
15 14 14 14 14 14 14 15 17 18 20 21 22 22 22 23 22 22 22 21 19 18 18 17 17 17 17 16 16 16 16 16 16 16 17 17 17 17 17 17 18 20 21 23 25 26 27 28 28 29 29 29 30 30 31 31 32 32 33 34 34 35 36 37 38 38 39 40 41 42 43 43 44 44 44 43 42 42 43 43 44 44 45 46 47 46
16 16 15 14 14 14 14 14 14 15 17 18 20 21 23 23 22 22 21 20 18 17 18 18 19 19 19 18 18 18 18 17 17 17 17 17 18 18 17 17 17 18 18 20 22 24 26 28 29 29 30 30 30 30 31 31 32 32 33 34 35 36 37 38 39 40 41 42 43 44 45 45 46 46 46 45 45 44 44 45 45 46 47 46 46 45
15 16 15 14 14 14 15 15 14 14 15 16 17 18 20 21 21 21 20 18 17 16 17 18 19 20 20 20 20 19 19 19 19 19 19 19 18 18 18 18 18 18 18 18 19 20 22 24 26 28 29 30 31 31 31 31 32 33 34 35 36 37 38 39 41 42 43 43 44 44 45 46 47 47 47 48 47 47 46 46 47 48 48 47 45 43
15 15 15 15 14 13 14 15 15 15 15 15 15 16 16 17 18 19 19 18 17 17 17 17 19 20 21 21 21 21 21 21 21 20 20 19 19 19 18 18 18 18 18 18 18 18 19 21 22 24 27 28 30 31 32 32 33 33 34 35 36 37 38 40 41 42 43 44 45 45 46 46 47 48 48 49 49 50 49 49 49 49 49 47 45 44
15 15 15 15 14 14 14 14 15 15 15 15 15 14 14 13 13 15 17 17 18 19 19 18 18 18 19 21 22 22 21 21 21 21 19 19 18 18 18 18 18 18 18 18 18 19 19 19 20 21 23 25 28 30 31 33 33 34 35 35 36 37 38 40 41 42 42 43 44 44 45 46 47 48 49 50 50 51 51 51 51 50 50 48 47 46
16 16 15 15 15 15 14 15 15 15 14 14 13 12 12 11 12 13 15 17 18 20 20 20 19 18 18 20 21 22 21 21 20 20 19 18 18 18 18 18 18 18 18 18 18 19 19 19 19 19 20 22 25 27 30 32 33 35 35 36 36 37 38 39 39 40 41 41 41 42 43 44 46 47 49 49 50 50 50 51 51 51 51 50 49 48
17 17 16 16 16 15 15 15 15 14 13 12 12 12 12 13 14 15 15 17 18 19 20 21 21 20 20 19 19 20 19 19 19 18 18 18 18 18 19 19 20 19 19 19 19 19 18 18 19 19 20 21 22 24 26 29 31 33 35 36 36 37 37 38 38 39 39 39 39 39 40 41 43 44 46 47 48 48 49 49 50 51 51 51 50 49
18 18 17 17 16 16 15 15 15 14 14 13 13 14 15 16 16 16 16 17 18 19 19 19 20 20 20 19 18 16 16 16 17 17 18 18 18 19 19 21 21 21 20 20 20 19 18 18 18 19 19 20 21 22 23 25 28 30 32 34 35 36 37 37 37 37 37 37 37 38 38 39 40 42 43 45 46 47 47 48 49 50 50 50 50 49
17 17 16 15 16 16 16 16 15 15 15 15 16 16 17 17 17 16 16 17 18 19 18 18 19 19 18 16 15 13 13 14 15 16 18 19 20 20 20 21 22 22 22 22 21 21 19 18 18 19 19 19 20 21 22 23 24 26 28 30 32 34 35 36 36 37 37 37 37 37 37 38 39 40 41 43 44 45 46 47 48 49 49 49 49 48
16 15 14 14 16 17 17 17 17 17 18 18 17 17 17 17 17 16 16 17 17 17 16 15 15 16 16 14 13 11 11 13 14 16 17 20 21 21 21 21 22 23 23 23 23 22 21 20 20 20 19 19 20 20 20 21 22 23 24 26 28 29 31 33 34 35 36 36 37 37 37 38 38 39 40 41 43 43 44 45 46 47 48 48 48 48
16 15 15 15 16 17 19 19 19 19 19 19 19 18 17 17 17 16 16 16 16 15 14 13 9 8 10 15 14 12 12 14 16 18 19 20 21 22 20 19 20 21 23 23 24 24 23 23 22 22 21 20 20 19 20 21 21 22 23 23 24 26 27 29 30 32 34 35 36 37 37 38 38 39 39 40 41 42 43 44 45 46 47 48 49 50
16 16 16 16 16 17 19 19 19 19 20 20 19 19 19 18 17 17 16 16 15 14 14 14 12 8 7 12 15 15 15 17 18 19 19 20 21 21 19 18 18 20 21 23 23 24 24 24 23 23 22 21 20 20 20 20 21 21 22 23 23 24 25 26 28 29 31 33 35 36 37 38 38 39 39 40 41 41 42 43 44 45 46 47 48 50
17 17 17 17 17 18 19 19 19 19 19 19 19 20 19 19 18 17 17 16 16 16 16 16 16 15 14 16 18 19 18 19 19 19 19 19 20 20 19 18 18 19 21 22 23 24 24 24 24 24 23 22 21 21 20 20 21 21 22 23 24 24 25 26 27 28 29 31 33 35 36 38 39 39 39 40 40 41 42 43 44 45 46 47 48 49
19 19 19 18 19 19 20 19 19 19 19 20 20 20 20 20 19 18 18 17 17 17 17 16 17 17 18 19 20 20 19 18 18 17 17 19 20 20 19 17 17 19 20 22 23 23 24 24 25 24 24 23 22 21 21 21 21 21 22 23 24 24 25 26 27 27 28 30 31 33 35 37 38 39 40 40 40 40 41 42 43 44 45 47 48 49
21 21 21 20 19 19 20 19 19 19 20 21 21 22 21 20 20 19 18 17 17 17 17 18 18 17 17 18 19 19 17 16 15 15 16 18 21 21 19 17 17 19 21 23 23 23 23 24 25 25 25 25 24 23 22 22 21 22 22 23 24 25 25 26 27 27 28 29 30 31 33 35 37 38 39 40 40 40 40 41 41 43 44 46 48 50
22 23 23 22 22 21 22 22 22 22 22 22 22 21 20 20 20 20 20 19 19 18 18 17 18 18 18 19 19 19 18 18 17 16 17 18 20 21 18 17 18 20 21 22 23 23 23 23 24 25 26 26 25 25 24 23 23 22 22 23 23 24 25 26 27 28 28 29 29 30 32 33 35 37 38 39 40 40 40 40 40 41 42 44 47 50
24 24 24 24 24 24 24 25 25 25 24 23 23 22 21 20 21 21 21 20 20 20 20 20 21 22 23 24 24 23 23 22 20 18 17 15 18 21 18 17 18 20 21 23 23 24 24 24 24 24 25 25 26 26 25 25 24 24 23 23 24 24 25 26 27 28 29 29 29 30 31 32 33 35 36 38 39 40 40 40 39 39 40 42 45 48
25 26 25 25 25 25 25 25 25 25 24 24 24 23 23 23 23 23 23 23 23 23 23 23 24 24 24 24 24 23 23 22 20 19 17 17 19 21 19 18 18 20 22 23 24 24 24 24 24 24 24 25 25 26 26 26 26 25 25 24 24 24 25 26 27 28 29 29 29 30 30 30 31 32 34 35 37 39 39 39 39 38 38 39 42 45
25 26 25 25 25 26 26 26 25 25 24 24 23 23 23 24 24 25 25 26 25 24 23 23 23 23 22 22 21 21 21 19 18 18 17 17 19 20 19 18 18 19 21 22 24 24 24 24 24 25 25 25 26 26 27 27 27 26 26 25 24 24 25 25 26 27 28 29 29 29 29 29 29 30 31 32 34 36 37 38 38 37 36 36 38 42
25 25 26 26 26 26 26 26 25 25 25 25 24 24 24 24 25 25 25 25 24 22 22 21 20 20 21 20 20 21 20 17 17 18 18 17 17 19 19 18 17 18 20 21 23 24 23 24 25 25 25 26 26 27 27 27 27 26 25 25 24 24 24 25 26 26 27 28 29 29 28 28 28 28 28 29 31 32 34 35 36 35 34 34 35 39
25 25 26 26 26 27 27 27 28 27 27 27 26 26 25 25 24 24 24 23 21 20 20 17 15 15 18 18 19 20 19 17 17 18 18 17 17 18 19 17 16 17 19 21 22 22 23 24 25 25 26 26 27 26 26 25 25 24 24 23 23 23 24 24 25 26 26 27 28 27 27 26 26 26 26 27 28 29 31 32 33 32 32 32 33 37
23 24 24 25 25 26 26 27 27 27 28 28 27 27 26 25 24 23 23 22 20 20 20 17 12 10 12 15 18 20 19 18 18 18 17 17 16 18 19 17 16 17 18 19 20 21 22 23 24 25 25 25 25 23 22 21 20 20 21 21 22 22 23 23 24 25 25 26 26 26 25 25 25 25 25 26 26 27 28 29 30 30 30 31 33 35
23 23 23 24 24 23 23 24 24 24 25 25 25 25 25 25 24 24 24 22 21 20 21 20 17 14 14 18 20 21 22 21 20 18 17 17 18 19 18 17 17 18 17 16 18 19 21 21 21 22 22 21 19 18 17 16 16 17 19 19 20 20 21 22 22 23 24 24 25 24 24 24 24 25 25 25 25 26 26 27 28 29 30 31 32 33
24 24 25 25 24 24 24 24 23 23 23 23 23 23 24 24 25 26 25 23 22 21 21 20 19 18 18 18 16 16 18 20 19 17 16 16 17 17 16 16 17 18 15 12 10 11 14 16 16 15 15 14 13 13 13 14 16 17 18 19 19 19 20 20 21 21 22 22 23 23 23 23 24 25 26 26 26 25 25 26 27 29 30 30 30 31
24 25 25 25 25 25 25 25 25 24 24 23 22 23 23 24 25 26 25 24 23 23 22 21 20 20 19 14 8 6 8 15 16 14 15 15 15 14 13 14 17 18 16 12 4 1 6 8 9 9 9 11 13 14 16 17 18 19 20 20 20 20 19 19 19 20 20 21 21 21 22 23 24 26 27 27 27 26 26 26 27 29 30 29 29 29
24 24 24 24 24 24 24 24 24 24 24 24 24 23 23 24 24 25 25 25 24 24 23 22 21 21 21 18 12 9 11 16 17 15 16 16 15 15 13 14 17 18 18 16 12 7 4 4 7 10 12 16 18 20 21 21 22 22 22 22 22 21 20 19 18 18 19 19 20 21 22 23 24 25 27 27 27 27 26 26 28 30 31 30 30 30
24 24 24 23 23 23 23 23 23 23 23 24 24 24 24 24 24 25 25 25 25 24 24 24 23 22 22 22 21 20 21 22 21 19 19 19 18 17 16 16 17 19 18 19 19 16 11 10 13 17 20 21 22 23 24 24 24 23 22 22 22 22 20 19 18 17 18 19 20 20 21 22 23 24 25 26 26 25 25 25 28 30 31 31 32 33
25 25 24 23 23 23 24 24 24 24 24 24 24 24 24 24 25 25 26 26 25 25 25 25 24 22 22 21 22 23 24 24 22 20 20 21 20 18 17 17 19 20 19 17 17 17 15 17 18 18 19 21 22 22 23 23 23 22 21 21 21 21 20 19 18 17 17 18 19 20 21 21 21 22 23 23 24 24 25 26 28 30 30 31 33 34
26 26 25 25 24 24 25 25 24 24 24 24 24 24 24 24 25 26 26 27 27 27 27 26 25 24 23 22 21 21 23 22 20 19 19 21 20 19 18 18 20 20 18 17 16 16 15 17 18 16 15 17 19 20 20 20 20 20 20 19 19 19 19 19 18 18 17 17 18 19 20 21 21 21 21 21 22 23 25 27 28 28 27 29 31 34
27 27 27 26 25 25 25 25 25 24 24 25 24 24 24 25 25 26 27 28 28 29 29 28 28 27 26 25 24 23 23 22 21 20 20 21 21 20 19 19 20 19 18 17 17 16 14 15 16 16 15 14 15 17 19 18 18 19 19 19 18 18 18 18 18 18 18 18 18 18 19 20 21 22 22 21 21 22 23 26 26 25 24 25 27 30
26 26 26 26 25 25 25 25 25 25 25 25 25 25 25 26 26 27 28 28 29 30 30 30 30 30 29 29 28 27 27 25 24 24 24 24 23 22 21 22 22 21 20 19 18 17 15 14 14 15 15 14 14 15 17 17 18 19 20 19 18 17 17 18 18 18 18 19 18 17 18 19 21 22 22 22 22 22 22 24 24 23 21 21 23 25
25 25 26 25 25 24 24 24 25 25 25 25 26 26 26 27 28 28 29 30 31 32 31 31 31 31 31 32 32 31 30 29 28 28 27 26 26 26 25 25 25 24 24 23 21 19 17 12 9 7 8 12 15 17 18 17 17 18 20 19 18 18 18 18 18 18 19 19 19 19 18 18 19 21 22 23 23 22 22 23 23 22 21 20 20 22
26 26 25 26 25 25 25 24 24 25 25 25 26 26 27 28 29 30 30 31 32 33 33 32 32 32 32 33 34 34 33 33 32 32 31 30 30 30 29 28 27 27 26 26 25 23 20 16 12 9 7 10 13 16 18 18 18 18 18 18 19 19 19 19 18 18 19 20 20 20 19 18 18 19 21 23 24 24 24 24 24 24 23 22 21 21
26 26 26 26 26 26 26 26 26 25 25 25 26 26 26 27 28 29 30 31 31 32 33 33 32 33 33 33 33 34 34 34 35 35 34 34 33 33 31 29 28 27 26 26 26 26 24 21 19 18 17 15 14 15 17 18 18 18 17 16 16 18 19 18 18 18 19 19 20 21 20 19 18 18 20 22 24 25 26 26 26 26 25 25 24 23
28 27 28 28 28 28 28 27 27 26 25 25 24 24 24 24 24 25 26 27 28 28 29 29 30 31 32 33 33 33 33 33 34 35 35 36 35 35 34 32 30 28 26 26 27 27 27 24 22 21 20 19 18 18 18 19 19 18 17 16 16 17 18 18 19 19 19 19 19 20 21 20 19 18 19 20 23 26 27 27 27 27 27 27 26 25
29 29 29 29 29 29 29 29 29 28 27 25 25 24 23 22 21 21 22 23 24 24 24 25 27 29 30 30 30 30 30 32 33 34 35 36 36 36 36 34 31 29 27 27 27 27 27 26 25 23 21 20 19 18 19 20 20 19 19 19 18 17 17 18 18 18 17 17 18 19 20 21 21 19 18 18 20 23 26 27 28 28 28 28 28 28
29 30 30 30 31 31 31 31 30 29 27 25 25 25 24 24 23 23 23 22 22 22 23 25 26 26 26 26 26 27 28 29 31 32 33 34 36 36 36 35 33 31 29 27 26 26 26 26 26 26 25 23 21 20 19 19 19 19 20 19 17 14 12 14 15 16 16 16 17 17 19 21 22 21 19 18 18 19 22 25 27 29 30 30 30 30
28 29 29 29 30 29 28 27 26 26 25 25 25 24 24 24 24 25 24 23 22 22 23 25 25 24 22 21 20 20 21 22 24 25 27 29 32 34 35 35 35 33 31 29 27 25 25 25 26 27 26 24 22 22 21 19 18 18 19 19 19 17 15 14 15 16 17 17 17 16 17 19 20 21 21 20 18 17 18 21 24 27 29 30 31 32
24 25 24 24 23 22 22 22 22 22 22 23 24 25 24 24 24 24 24 23 22 22 23 23 21 18 16 16 16 15 14 14 16 18 21 23 25 28 31 33 34 34 33 31 29 26 24 24 25 25 24 23 22 22 21 20 18 18 18 19 20 21 21 19 18 18 19 18 17 17 16 16 17 19 21 21 20 19 17 18 20 23 26 29 31 32
24 23 23 23 22 21 21 21 22 22 23 23 24 25 25 25 24 24 23 23 21 21 21 22 20 16 15 16 16 16 15 16 17 17 18 19 21 23 26 29 31 32 32 32 30 29 27 26 25 24 22 21 21 21 21 19 18 17 18 18 19 20 21 21 21 21 21 20 18 17 16 15 15 16 18 19 20 21 20 19 18 20 22 25 29 31
24 24 24 25 25 25 25 25 25 25 25 25 25 25 26 25 25 24 24 23 22 21 21 21 21 20 20 19 18 18 18 19 20 21 20 21 22 23 24 26 28 30 32 32 31 29 28 28 26 25 22 20 19 19 19 18 18 18 18 18 19 20 20 21 22 23 23 22 20 19 16 15 14 16 16 17 18 20 21 22 21 20 20 21 24 28
25 25 25 25 25 26 26 26 26 26 26 26 26 26 26 26 25 24 24 23 23 22 21 21 21 22 22 23 22 22 21 22 22 23 23 23 24 24 24 24 25 27 29 30 30 30 29 29 28 27 25 23 20 18 18 17 18 19 20 20 20 20 21 22 23 24 24 23 22 20 18 16 16 16 15 15 15 17 19 21 23 23 22 21 21 24
26 25 25 25 24 24 24 25 26 26 26 26 26 26 26 26 26 25 24 24 24 23 22 22 21 21 21 22 23 23 23 23 23 23 23 24 24 24 23 23 23 24 24 25 26 27 28 28 29 30 29 28 25 22 20 19 19 20 21 21 22 22 22 22 23 23 24 24 23 21 19 18 17 16 15 14 14 15 16 18 21 24 25 24 23 23
26 26 25 25 24 24 24 24 25 24 24 24 25 25 25 25 25 25 25 25 24 24 23 23 22 21 21 22 23 23 23 22 22 22 23 23 24 24 23 22 21 20 20 19 19 20 21 22 25 28 30 31 29 27 23 21 20 20 21 21 22 22 22 22 22 23 24 23 23 22 20 19 18 16 15 15 14 15 15 16 19 22 25 27 27 26
26 26 26 25 25 24 24 24 23 23 23 23 23 23 23 23 23 23 23 24 24 24 24 24 23 22 22 22 23 23 23 22 22 22 23 23 23 23 22 22 20 19 17 15 13 12 12 11 13 18 24 28 30 29 26 23 20 18 18 19 20 21 21 21 21 22 22 22 22 22 21 19 18 17 17 15 14 13 14 15 17 19 22 25 27 28
Wind_Direction
334 336 341 344 345 344 344 347 349 349 348 349 351 351 350 347 344 340 335 330 327 325 322 319 316 314 312 310 307 305 301 295 288 278 269 262 257 254 252 250 248 246 245 245 245 246 247 247 246 246 248 250 253 254 254 253 251 250 248 247 246 245 243 242 241 241 240 239 237 236 234 233 234 235 236 237 237 237 237 237 237 235 233 231 229 227
334 336 339 341 342 341 340 344 347 348 346 346 347 348 349 348 346 344 339 334 329 324 321 317 313 310 308 306 304 302 299 295 290 284 278 272 266 261 257 253 250 246 243 241 240 241 242 243 243 243 245 247 250 252 253 254 254 254 254 254 254 253 253 251 250 249 248 246 243 241 238 236 235 234 234 235 237 238 238 237 235 232 229 228 228 228
332 334 336 338 339 338 337 340 343 345 344 343 343 344 345 345 345 344 343 340 335 329 324 319 315 311 307 303 301 299 296 293 289 284 279 274 269 264 260 254 249 243 239 237 236 236 237 238 238 240 242 245 247 250 251 252 254 255 256 257 258 259 259 258 257 257 255 253 251 248 245 242 240 237 235 234 235 237 239 239 237 232 227 225 226 227
328 330 331 334 335 334 333 335 338 340 341 340 340 340 341 342 342 342 341 341 338 335 331 326 321 316 312 307 303 300 297 294 290 286 281 276 271 266 261 256 251 245 240 236 234 234 235 235 236 237 239 242 245 248 250 251 252 253 255 256 258 259 261 261 261 261 260 259 257 254 251 248 245 242 239 236 235 237 241 242 241 237 232 228 227 227
322 324 326 328 328 328 329 332 335 336 337 337 337 337 338 339 339 339 340 340 340 339 336 334 330 326 321 317 312 308 303 299 295 291 287 282 276 271 266 261 256 251 247 242 238 237 236 236 237 237 238 240 243 246 248 250 252 253 254 255 256 258 259 260 261 262 263 263 262 260 257 254 251 247 244 240 238 238 242 243 244 242 238 233 230 230
316 318 320 321 320 320 323 327 332 334 335 335 334 334 334 335 337 338 339 341 342 342 340 339 337 334 330 326 322 318 313 308 302 297 292 288 284 280 275 270 264 259 255 250 246 243 241 240 239 239 240 241 243 245 247 250 252 253 254 255 256 257 258 258 259 261 262 264 265 265 263 261 257 253 249 244 240 240 242 244 244 244 242 237 234 232
313 314 317 316 315 315 317 322 327 332 333 331 331 331 332 333 334 335 337 340 342 342 341 339 337 335 332 329 327 324 320 316 311 305 300 295 291 287 283 279 274 269 263 258 254 250 247 244 242 241 242 242 244 245 248 250 252 253 254 254 255 256 256 256 257 258 259 261 263 264 265 265 264 260 255 249 244 242 243 244 244 244 241 237 233 231
310 313 316 315 315 315 316 317 323 328 330 329 327 327 328 329 330 332 334 337 339 340 339 336 333 330 328 327 325 323 320 317 314 311 307 302 298 293 290 286 282 278 273 267 262 257 253 249 246 244 243 243 244 245 247 249 250 251 252 252 253 253 253 253 253 254 255 257 259 261 263 265 266 265 262 255 249 244 242 243 243 242 239 235 231 229
308 311 314 315 316 316 316 316 319 323 326 325 322 320 321 323 325 328 330 332 333 334 334 331 328 325 324 323 322 320 318 316 314 311 309 306 303 299 295 292 288 284 280 275 270 265 261 256 252 249 246 245 244 245 246 247 248 249 250 250 250 249 249 250 250 251 252 253 255 257 259 261 263 264 263 259 254 248 243 241 240 239 237 233 231 230
308 310 312 313 313 314 314 313 316 319 322 321 317 315 314 316 320 323 325 325 326 327 327 325 324 322 321 321 320 319 317 315 314 312 310 307 304 302 299 295 291 287 283 280 276 272 268 264 260 256 253 250 248 247 247 247 247 248 248 248 248 248 247 247 248 249 250 251 252 253 255 257 259 260 260 259 256 252 247 243 239 237 235 234 233 231
312 312 312 311 312 313 312 311 313 317 320 320 317 315 314 315 317 319 320 320 320 321 321 320 319 318 318 318 318 318 316 315 314 313 312 309 307 304 301 298 294 291 287 284 280 276 274 271 268 265 261 257 255 252 251 249 249 248 248 248 248 248 247 247 247 248 250 251 252 252 252 253 255 256 256 256 255 253 251 247 244 240 238 236 235 233
314 314 313 311 311 312 312 312 314 317 320 322 321 319 316 316 317 316 313 312 313 315 316 315 314 314 314 315 316 316 316 314 314 314 314 313 311 310 308 305 303 300 296 291 286 281 278 275 273 270 267 264 261 258 256 254 252 251 250 250 249 249 248 248 247 248 249 251 252 253 252 252 252 253 253 252 252 252 251 250 248 245 242 240 237 235
313 314 312 310 310 310 312 314 315 317 319 320 318 315 312 312 312 310 306 303 303 306 309 310 310 310 311 313 314 316 316 315 314 314 314 314 315 315 315 313 311 309 306 302 297 291 287 282 278 274 271 268 265 262 260 258 256 255 254 253 252 251 250 249 248 248 248 250 252 253 253 252 251 251 250 250 250 250 250 250 250 248 246 243 239 236
311 312 312 310 309 309 310 312 313 312 312 312 310 308 306 307 307 306 303 299 298 300 303 303 305 307 309 312 315 318 318 316 314 313 311 312 314 316 317 316 314 312 310 308 304 300 296 292 287 281 276 272 269 266 263 261 260 259 258 257 256 254 253 252 250 249 248 249 250 251 252 251 250 249 249 249 248 248 248 249 249 248 247 244 241 237
306 308 308 307 306 306 306 308 307 305 305 306 306 305 305 304 304 303 301 298 297 299 301 300 302 304 305 309 315 320 320 316 313 311 310 310 311 313 315 314 312 311 310 307 305 302 301 298 293 288 283 278 274 270 268 265 263 262 261 260 259 257 256 255 253 252 250 249 249 250 250 250 249 248 248 248 247 247 247 247 247 247 247 245 243 240
296 298 299 299 299 300 301 302 302 301 301 302 303 304 303 303 302 301 299 297 298 300 300 301 303 304 303 305 311 316 316 314 311 310 309 308 307 309 312 311 309 307 307 305 303 302 301 299 296 293 289 284 279 275 272 269 267 265 264 262 261 260 259 258 256 255 253 252 251 250 250 250 250 249 248 248 248 247 247 247 247 247 246 246 245 244
287 287 288 290 291 292 295 297 297 297 299 300 301 300 300 299 300 300 299 298 299 300 298 299 302 304 303 303 303 306 311 311 309 307 307 304 303 306 309 308 304 302 301 300 300 300 300 299 297 295 292 288 284 280 275 272 269 267 266 265 264 263 262 261 259 258 256 255 254 252 252 251 251 250 249 248 248 248 247 247 247 247 247 247 247 247
279 280 281 282 283 286 289 291 293 295 297 298 298 298 298 297 298 300 300 300 300 299 297 296 294 291 295 297 297 299 304 305 304 304 302 300 300 303 305 303 299 295 295 294 295 296 297 297 297 296 294 291 288 283 278 274 271 268 267 266 265 264 264 263 262 260 259 258 256 255 254 253 252 252 251 250 249 248 247 247 247 247 247 247 247 247
273 273 274 276 278 281 283 284 287 290 292 293 295 297 297 297 299 300 299 299 297 295 293 291 288 286 286 287 291 294 297 297 298 298 298 297 297 300 301 300 295 291 289 288 290 292 295 296 296 296 295 293 290 286 282 278 274 271 268 266 265 264 263 263 262 261 260 259 258 257 256 255 254 253 252 251 250 249 248 247 247 247 247 247 246 246
269 268 267 270 274 277 278 278 280 283 285 288 292 294 295 297 299 298 296 295 293 291 288 286 283 283 285 286 288 291 293 293 293 293 294 294 295 295 297 296 293 290 287 286 287 290 292 293 294 295 294 293 291 289 286 283 279 276 272 269 266 264 263 262 261 261 260 260 259 258 257 256 255 254 253 252 251 250 249 248 247 247 246 246 246 245
266 264 263 264 268 271 273 274 275 277 279 283 287 290 292 295 295 294 293 294 293 290 287 285 283 284 287 288 290 293 295 294 292 292 294 293 292 291 292 292 291 288 286 286 287 289 290 290 291 292 292 292 292 291 289 287 284 281 277 273 270 266 264 262 260 259 259 258 258 258 257 256 255 254 253 252 252 251 250 249 248 247 246 246 245 244
266 265 264 262 262 263 267 270 272 274 275 278 281 284 287 289 290 290 291 293 293 292 290 288 287 289 291 290 291 293 294 296 295 295 295 291 287 285 288 289 288 285 283 284 286 288 288 287 287 288 289 290 290 290 290 288 287 285 282 278 274 270 266 262 260 258 257 257 257 257 256 256 254 254 253 252 251 251 251 250 249 248 247 246 244 243
266 266 265 263 261 261 264 267 270 271 272 273 274 276 279 282 284 286 290 292 292 292 292 292 292 291 289 288 288 288 288 289 290 290 287 283 281 282 285 286 284 282 280 282 285 287 286 284 283 284 286 287 288 288 288 287 287 286 284 281 278 273 269 264 261 258 256 256 255 255 255 255 254 253 252 251 251 250 250 250 249 249 248 247 245 243
266 266 266 264 263 262 263 265 267 268 270 270 271 272 274 277 280 283 287 289 290 291 292 294 293 291 288 287 287 286 284 283 282 279 274 273 276 279 280 280 279 279 279 281 284 286 285 283 282 281 282 283 284 285 285 286 286 286 285 283 280 277 272 267 263 259 256 255 254 254 254 254 253 252 251 250 249 249 248 248 249 249 249 249 247 245
267 266 266 265 264 263 263 263 265 266 268 269 270 272 274 276 279 282 284 285 287 290 292 293 291 287 286 287 286 284 281 280 276 269 263 267 272 274 275 274 275 276 278 281 283 284 283 282 281 281 281 280 281 282 284 285 286 286 285 284 282 279 275 270 265 261 258 256 254 254 254 254 254 253 252 250 249 247 247 246 246 247 249 250 250 247
270 270 269 268 266 265 264 263 264 265 266 267 269 271 274 277 280 282 282 282 284 287 289 287 284 282 283 285 283 281 281 281 275 265 257 261 269 272 272 271 270 272 275 279 282 283 282 281 281 281 281 281 281 283 285 287 288 288 287 285 283 280 276 272 268 263 260 257 255 255 254 255 256 256 255 253 250 248 246 244 244 245 247 250 251 250
275 274 273 272 271 269 267 266 265 265 265 266 267 269 272 275 277 277 276 276 278 281 281 278 277 280 282 282 280 279 282 281 275 267 260 259 264 269 270 270 269 270 273 276 279 280 280 280 280 281 282 283 285 287 288 290 291 290 288 286 283 280 277 273 270 266 262 259 257 256 256 257 259 260 260 258 254 251 247 244 243 244 246 250 252 252
279 279 279 278 276 275 273 270 268 267 266 265 265 266 268 269 270 269 268 270 273 273 270 268 270 277 280 278 278 280 281 278 274 271 267 262 262 266 268 269 268 268 271 276 279 280 279 277 278 281 283 286 289 291 292 293 293 291 289 286 283 279 276 273 270 267 264 261 259 258 258 261 263 266 266 264 260 255 250 247 246 246 248 251 251 250
282 282 281 281 280 279 278 276 274 271 268 266 265 265 264 264 263 263 264 266 267 265 263 264 266 269 272 276 278 280 279 275 273 272 270 264 261 263 266 267 266 266 269 276 282 282 278 276 277 281 284 288 290 292 294 296 296 296 294 291 287 282 277 273 270 268 265 263 261 260 262 265 268 270 271 270 266 261 255 251 250 250 251 250 247 243
284 283 282 281 281 281 281 279 277 275 272 270 267 265 263 261 260 260 262 262 260 258 259 261 263 264 267 272 276 277 275 273 272 271 266 259 259 262 265 264 262 262 265 273 282 284 279 277 278 279 281 285 288 292 297 301 302 302 301 299 295 289 281 276 272 269 267 265 264 264 266 268 271 273 274 273 270 265 258 253 250 248 246 242 237 230
285 285 284 283 282 281 281 279 278 277 275 272 269 266 263 261 260 260 260 259 256 254 256 258 258 258 260 264 268 269 270 272 274 273 268 259 259 264 265 262 261 261 260 259 262 303 284 284 280 275 276 283 289 293 297 299 300 301 302 301 299 295 289 282 276 272 269 268 268 268 269 270 271 272 273 273 271 266 260 252 246 240 235 229 221 213
283 283 282 281 281 280 279 278 277 276 275 273 270 267 265 263 262 261 260 257 255 253 253 254 255 254 254 254 253 256 264 269 271 272 271 268 270 272 271 266 264 264 259 251 248 253 275 285 283 282 283 286 288 290 291 292 293 295 296 298 298 296 293 288 281 276 273 272 270 269 269 267 267 267 267 267 266 261 254 245 236 229 223 215 208 200
282 281 280 280 279 279 277 276 275 274 272 271 269 267 266 264 263 263 261 259 257 254 253 253 253 253 252 251 252 256 260 263 264 265 266 269 273 276 275 270 267 267 263 253 248 249 255 266 276 281 283 283 284 286 287 289 291 292 293 294 295 295 294 290 284 279 275 273 271 269 266 263 260 258 257 256 253 248 240 230 221 215 210 204 199 194
282 281 280 280 279 278 277 275 274 272 270 269 267 266 265 264 264 264 263 262 260 258 256 254 253 252 252 252 253 256 258 259 258 258 258 260 264 270 273 270 268 268 265 256 248 248 253 260 268 275 279 281 281 283 284 287 289 291 293 292 293 294 294 291 285 278 273 270 268 266 262 258 254 250 247 243 238 231 221 211 204 201 199 197 194 191
281 280 280 279 279 278 276 275 273 271 270 268 267 265 264 263 263 263 263 263 263 262 260 258 256 254 253 254 255 258 259 258 257 254 254 254 259 266 271 270 269 267 263 256 250 249 253 256 259 263 271 277 279 279 280 283 287 290 291 291 291 293 294 292 287 279 271 267 263 261 258 254 249 244 240 234 227 219 209 201 197 195 194 193 191 190
277 277 277 277 276 276 275 274 272 271 270 268 267 265 264 262 261 261 261 262 262 262 262 262 261 260 258 258 258 260 261 262 261 260 258 258 262 267 271 271 271 271 268 261 255 251 250 252 252 254 259 267 274 277 278 280 283 284 285 286 289 293 295 293 288 280 272 265 260 256 254 250 247 242 237 231 224 216 208 202 198 197 196 194 191 189
273 274 274 274 274 273 273 272 272 271 270 269 268 266 264 262 261 261 261 261 261 262 262 263 263 262 262 261 261 262 263 265 265 263 262 262 265 267 270 270 272 274 275 272 267 261 255 252 251 250 251 254 262 271 275 276 277 276 277 281 287 292 294 293 289 282 274 265 259 254 250 248 245 241 237 232 225 218 212 207 205 203 202 200 196 192
270 271 272 272 272 272 272 272 272 271 270 269 268 267 264 262 262 261 261 260 260 261 261 262 262 262 262 262 262 263 263 264 264 263 262 262 263 264 265 267 269 270 272 275 276 272 264 258 251 247 247 249 254 260 265 267 268 269 272 278 284 287 288 289 287 283 276 267 260 253 248 245 242 240 236 232 227 221 216 213 211 210 210 208 205 201
269 270 271 271 272 272 273 273 273 272 272 271 269 267 264 263 261 260 259 259 259 260 261 261 262 262 262 262 262 262 262 262 262 261 261 261 260 260 260 262 264 265 268 272 276 276 272 265 258 252 251 251 253 255 257 258 259 261 267 274 278 279 281 284 285 283 278 270 263 255 249 244 240 237 234 232 228 223 220 218 216 215 215 215 214 211
268 268 269 269 270 271 271 272 273 274 274 273 272 270 267 263 260 259 258 257 258 259 260 262 263 263 263 262 261 261 261 261 261 261 261 260 258 257 256 257 259 262 264 267 271 273 274 271 266 260 254 252 250 252 255 254 254 256 260 265 268 271 276 282 285 284 280 273 266 258 252 245 240 235 233 230 228 225 223 221 219 219 218 216 214 211
265 265 266 267 268 268 269 269 271 272 273 273 273 272 268 264 261 259 257 257 257 259 261 264 265 265 264 262 261 261 261 261 262 261 261 260 259 257 255 255 257 259 261 263 265 268 271 273 272 268 260 253 249 249 250 251 251 252 252 254 259 267 275 280 281 280 278 274 268 260 254 248 242 236 232 230 228 227 226 223 222 221 220 219 215 211
263 264 264 265 265 265 266 266 267 268 269 270 271 271 269 267 264 261 259 258 259 261 264 266 265 264 262 261 259 259 259 259 260 260 260 260 259 258 256 255 255 257 259 261 262 263 265 268 271 271 266 259 252 249 248 247 246 247 248 249 255 264 272 272 272 272 272 271 267 262 255 249 244 239 234 231 229 228 227 226 224 223 221 220 218 215
264 264 264 264 264 263 263 262 262 262 263 264 266 267 268 268 267 266 263 261 262 265 268 267 264 261 258 257 256 255 255 255 257 258 258 259 258 257 256 254 253 254 255 257 259 260 261 263 265 267 267 263 256 250 247 244 241 241 244 246 249 252 257 261 264 267 268 268 265 261 255 250 246 242 238 234 231 228 226 224 224 224 223 220 219 217
264 265 265 264 263 262 260 258 256 257 258 260 262 264 265 266 267 267 266 264 265 267 267 266 264 262 258 254 252 251 252 254 257 260 261 261 259 257 256 254 253 252 252 252 255 257 260 260 260 262 264 262 257 251 246 241 238 237 239 243 243 242 244 253 260 263 265 264 264 262 258 253 248 245 242 240 237 232 226 222 221 221 221 221 220 218
262 263 263 264 263 262 261 258 258 258 258 260 262 264 265 265 265 265 263 263 264 265 264 266 268 270 265 262 261 261 262 265 267 270 270 270 268 264 259 255 253 251 250 250 250 252 255 257 258 259 261 261 257 251 245 240 236 235 237 241 243 243 244 249 254 256 257 258 260 261 261 257 251 246 243 243 242 240 234 226 220 217 217 217 217 217
264 264 264 265 267 267 266 266 266 266 265 264 264 265 265 265 264 263 261 261 261 262 263 267 271 274 275 277 278 280 282 281 279 278 278 278 277 274 269 263 257 253 250 249 249 249 251 252 254 257 261 262 260 255 248 242 236 235 237 240 242 243 243 244 246 248 250 253 255 258 259 257 250 243 240 242 243 243 240 235 228 221 216 214 214 214
262 263 264 265 267 267 268 268 269 269 268 267 266 266 266 265 263 262 261 261 261 262 264 266 268 270 273 277 280 282 282 280 279 278 279 279 280 279 277 272 266 260 254 250 249 249 250 251 252 253 256 259 261 260 256 248 240 236 236 238 239 238 238 238 240 243 246 248 250 251 252 248 241 236 236 238 240 242 243 241 237 231 224 217 214 213
259 260 261 263 264 265 265 266 267 267 267 267 266 265 264 263 261 261 260 261 262 263 264 265 265 267 270 273 275 275 275 275 275 275 276 276 277 277 277 276 272 266 260 254 251 250 251 252 251 251 251 253 256 261 262 257 247 241 240 238 236 234 233 234 237 239 242 244 245 245 244 239 233 229 230 232 236 240 242 242 241 238 234 228 221 217
255 256 258 259 260 260 261 263 264 264 264 265 265 264 263 261 260 259 258 259 259 260 261 262 263 265 267 269 270 271 271 271 272 272 272 272 272 273 274 274 271 268 262 257 254 253 253 253 253 251 249 248 250 255 261 261 255 247 242 236 232 229 229 231 234 236 237 239 240 240 240 238 235 231 225 225 230 236 238 240 240 240 239 235 231 226
253 253 254 255 256 257 258 259 260 261 261 261 262 263 263 262 260 258 256 256 256 256 257 258 259 261 263 264 266 266 267 268 269 269 269 269 270 270 271 270 268 265 261 257 254 254 254 254 254 252 250 248 247 248 252 256 256 249 241 234 228 224 224 227 229 231 232 234 234 235 235 235 234 230 224 222 226 232 236 238 239 239 239 238 236 234
253 253 252 252 253 254 255 256 256 256 257 259 260 262 262 262 260 258 255 253 252 252 253 254 255 256 257 259 261 262 263 264 265 266 267 268 268 268 268 267 264 261 259 257 254 252 252 252 253 252 251 249 246 244 244 247 249 247 241 234 227 221 220 222 225 227 228 229 229 230 229 227 225 222 219 218 222 228 234 236 237 237 237 237 236 236